Regional Weather Roundup
Issued by NWS

Home | Current Version | Previous Version | Text Only | Print | Product List | Glossary On
Versions: 1 2 3 4 5 6 7 8 9 10 11 12 13 14 15 16 17 18 19 20 21 22 23 24 25 26 27 28 29 30 31 32 33 34 35 36 37 38 39 40 41 42 43 44 45 46 47 48 49 50
000
ASUS43 KLSX 281110
RWRMO

WEATHER SUMMARY FOR MISSOURI
NATIONAL WEATHER SERVICE SPRINGFIELD MO
600 AM CDT SAT MAY 28 2016

NOTE: "FAIR" INDICATES FEW OR NO CLOUDS BELOW 12,000 FEET WITH NO
       SIGNIFICANT WEATHER AND/OR OBSTRUCTIONS TO VISIBILITY.
       CURRENT SKY AND/OR WEATHER CONDITIONS ARE NOT AVAILABLE FOR
       CHILLICOTHE AND FARMINGTON.

MOZ001>031-035>038-043-044-053-054-281200-
...NORTHERN AND WESTERN MISSOURI...

CITY           SKY/WX    TMP DP  RH WIND       PRES   REMARKS
KANSAS CTY INT CLOUDY    59  57  93 SE7       29.77F
KANSAS C DTWN  CLOUDY    62  58  86 SE5       29.78R
LEE`S SUMMIT   CLOUDY    59  57  93 E7        29.79S
ST JOSEPH      MOCLDY    60  58  92 S3        29.76S
CHILLICOTHE      N/A     60  59  96 S5        29.81R
KIRKSVILLE     PTCLDY    64  63  96 S9        29.80R

$$
MOZ066>068-077>081-088>096-101>105-281200-
...SOUTHWEST MISSOURI...

CITY           SKY/WX    TMP DP  RH WIND       PRES   REMARKS
SPRINGFIELD    CLOUDY    63  60  90 S9        29.85R
JOPLIN         CLEAR     63  61  93 S12       29.83R

$$
MOZ032>034-039>042-045>050-055>058-069>072-281200-
...CENTRAL MISSOURI...

CITY           SKY/WX    TMP DP  RH WIND       PRES   REMARKS
COLUMBIA       CLEAR     65  64  97 S12       29.83R
JEFFERSON CITY CLOUDY    66  63  90 SE7       29.83R
ROLLA          PTCLDY    64  62  93 S8        29.85R
SEDALIA        CLOUDY    63  60  90 S9        29.82R
WHITEMAN AFB   CLEAR     61  61 100 S5        29.80R
WARRENSBURG    FOG       55  55 100 CALM      29.80R VSB 1/4

$$
MOZ051-052-059>065-281200-
...EAST CENTRAL MISSOURI...

CITY           SKY/WX    TMP DP  RH WIND       PRES   REMARKS
ST LOUIS INTL  CLOUDY    69  64  84 S10       29.88S
SPIRIT OF STL  CLOUDY    68  65  90 S9        29.86R
ST CHARLES     CLOUDY    68  66  93 SE12      29.86S

$$
MOZ072>076-082>087-097>100-106>115-281200-
...SOUTH CENTRAL AND SOUTHEAST MISSOURI...

CITY           SKY/WX    TMP DP  RH WIND       PRES   REMARKS
CAPE GIRARDEAU CLOUDY    69  65  86 S8        29.93R
FARMINGTON     CLOUDY    65  63  93 S9        29.92S
POPLAR BLUFF   LGT RAIN  68  65  90 CALM      29.92R
WEST PLAINS    CLOUDY    66  62  87 S7        29.92R

$$




USA.gov is the U.S. government's official web portal to all federal, state and local government web resources and services.